Simultaneous Nadir Overpasses (SNOs) Predictions

Prediction of SNOs between AQUA and NPP Satellite Orbit:

Table of predicted SNOs for the next 14.0 days since TLE Epoch: 12/24/2022
Index Date (AQUA) Time (AQUA) Lat,Lon (AQUA) SZA (AQUA ) Date (NPP) Time (NPP) Lat,Lon (NPP) SZA (NPP ) Distance(km) Time Diff (sec)
1 12/25/2022 09:31:59 -79.20, 112.09 64.26 12/25/2022 09:31:42 -79.20, 112.03 64.23 1.49 17
2 12/25/2022 10:21:14 79.58, -77.72 115.23 12/25/2022 10:22:15 79.58, -77.59 115.16 2.76 61
3 12/28/2022 00:57:50 79.36, 61.67 115.49 12/28/2022 00:57:50 79.36, 61.76 115.48 1.70 0
4 12/30/2022 15:34:29 79.00,-159.76 115.89 12/30/2022 15:33:29 78.99,-159.86 115.96 2.10 60
5 12/30/2022 16:23:47 -79.33, 10.03 64.57 12/30/2022 16:24:05 -79.33, 9.92 64.56 2.36 18
6 01/02/2023 07:00:21 -79.10, 149.42 64.40 01/02/2023 06:59:39 -79.09, 149.31 64.35 2.41 42
7 01/02/2023 07:49:35 79.51, -40.22 115.04 01/02/2023 07:50:11 79.51, -40.14 115.00 1.46 36
8 01/04/2023 22:26:11 79.22, 98.70 115.25 01/04/2023 22:25:48 79.21, 98.62 115.28 1.69 23



Historial Predications of SNOs between AQUA and NPP
